This is the latest recevied weather packets stored in our database for station/object N2XP. If no packets are shown the sender has not sent any weather packets the latest 10 day(s).
| Time | Temp. | Humidity | Pressure | Rain* | Wind** | Luminosity | Snow |
|---|---|---|---|---|---|---|---|
| 1778002249 | 27.22° C | 45% | 1006.7 hPa | 0 mm | - | - | - |
| 1778001348 | 27.22° C | 45% | 1006.9 hPa | 0 mm | - | - | - |
| 1778000468 | 26.11° C | 45% | 1007 hPa | 0 mm | - | - | - |
| 1777999543 | 26.67° C | 50% | 1007.3 hPa | 0 mm | - | - | - |
| 1777998644 | 26.67° C | 47% | 1007.4 hPa | 0 mm | - | - | - |
| 1777997743 | 26.11° C | 47% | 1007.6 hPa | 0 mm | - | - | - |
| 1777996835 | 26.11° C | 49% | 1007.6 hPa | 0 mm | - | - | - |
| 1777995932 | 25.56° C | 52% | 1007.8 hPa | 0 mm | - | - | - |
| 1777995036 | 25° C | 52% | 1008.2 hPa | 0 mm | - | - | - |
| 1777994130 | 24.44° C | 54% | 1008.3 hPa | 0 mm | - | - | - |
| 1777993229 | 23.89° C | 55% | 1008.2 hPa | 0 mm | - | - | - |
| 1777992318 | 22.78° C | 59% | 1008.3 hPa | 0 mm | - | - | - |
| 1777991417 | 22.22° C | 58% | 1008.6 hPa | 0 mm | - | - | - |
| 1777990513 | 21.67° C | 62% | 1009 hPa | 0 mm | - | - | - |
| 1777989605 | 21.11° C | 63% | 1009 hPa | 0 mm | - | - | - |
| 1777988753 | 20° C | 64% | 1008.8 hPa | 0 mm | - | - | - |
| 1777987857 | 19.44° C | 65% | 1008.8 hPa | 0 mm | - | - | - |
| 1777986965 | 18.33° C | 69% | 1008.8 hPa | 0 mm | - | - | - |
| 1777986037 | 17.78° C | 73% | 1008.8 hPa | 0 mm | - | - | - |
| 1777985131 | 16.67° C | 76% | 1008.9 hPa | 0 mm | - | - | - |
| 1777984249 | 15.56° C | 81% | 1008.6 hPa | 0 mm | - | - | - |
| 1777983323 | 14.44° C | 84% | 1008.5 hPa | 0 mm | - | - | - |
| 1777982426 | 13.89° C | 89% | 1008.6 hPa | 0 mm | - | - | - |
| 1777981516 | 13.33° C | 91% | 1008.8 hPa | 0 mm | - | - | - |
| 1777980634 | 12.22° C | 94% | 1009 hPa | 0 mm | - | - | - |
* Rain latest hour (hover to see other rain measurements)
** Current wind speed in m/s (hover to see current wind gust speed)